TimeMDT,TemperatureF,Dew PointF,Humidity,Sea Level PressureIn,VisibilityMPH,Wind Direction,Wind SpeedMPH,Gust SpeedMPH,PrecipitationIn,Events,Conditions,WindDirDegrees,DateUTC
12:53 AM,35.1,17.1,48,30.04,10.0,NNE,8.1,-,N/A,,Mostly Cloudy,30,2013-03-27 06:53:00
1:53 AM,33.1,19.9,59,30.02,10.0,NNE,6.9,-,N/A,,Scattered Clouds,30,2013-03-27 07:53:00
2:53 AM,33.1,19.9,59,30.02,10.0,Variable,3.5,-,N/A,,Overcast,0,2013-03-27 08:53:00
3:53 AM,33.1,19.0,56,30.01,10.0,Calm,Calm,-,N/A,,Overcast,0,2013-03-27 09:53:00
4:53 AM,33.1,19.0,56,30.02,10.0,Calm,Calm,-,N/A,,Overcast,0,2013-03-27 10:53:00
5:53 AM,32.0,19.0,59,30.05,10.0,Calm,Calm,-,N/A,,Overcast,0,2013-03-27 11:53:00
6:53 AM,27.0,16.0,63,30.09,10.0,Calm,Calm,-,N/A,,Mostly Cloudy,0,2013-03-27 12:53:00
7:53 AM,35.1,18.0,50,30.09,10.0,Calm,Calm,-,N/A,,Clear,0,2013-03-27 13:53:00
8:53 AM,41.0,19.0,41,30.09,10.0,Calm,Calm,-,N/A,,Scattered Clouds,0,2013-03-27 14:53:00
9:53 AM,43.0,19.0,38,30.09,10.0,Calm,Calm,-,N/A,,Mostly Cloudy,0,2013-03-27 15:53:00
10:53 AM,46.9,17.1,30,30.09,10.0,Variable,5.8,-,N/A,,Mostly Cloudy,0,2013-03-27 16:53:00
11:53 AM,51.1,21.9,32,30.07,10.0,ESE,8.1,-,N/A,,Scattered Clouds,110,2013-03-27 17:53:00
12:53 PM,54.0,27.0,35,30.06,10.0,SSE,9.2,-,N/A,,Clear,150,2013-03-27 18:53:00
1:53 PM,57.0,25.0,29,30.05,10.0,Variable,5.8,-,N/A,,Clear,0,2013-03-27 19:53:00
2:53 PM,57.9,27.0,31,30.02,10.0,East,3.5,-,N/A,,Clear,80,2013-03-27 20:53:00
3:53 PM,57.9,28.9,33,30.00,10.0,Variable,3.5,-,N/A,,Clear,0,2013-03-27 21:53:00
4:53 PM,60.1,28.0,30,29.99,10.0,SE,4.6,-,N/A,,Clear,140,2013-03-27 22:53:00
5:53 PM,57.9,28.0,32,30.00,10.0,SSE,8.1,-,N/A,,Clear,160,2013-03-27 23:53:00
6:53 PM,55.9,27.0,33,30.03,10.0,ESE,10.4,-,N/A,,Overcast,120,2013-03-28 00:53:00
7:53 PM,53.1,25.0,34,30.03,10.0,SE,17.3,-,N/A,,Overcast,130,2013-03-28 01:53:00
8:53 PM,46.9,41.0,80,30.07,10.0,SE,10.4,-,0.02,,Overcast,130,2013-03-28 02:53:00
9:53 PM,43.0,39.0,86,30.08,10.0,SE,9.2,-,N/A,,Clear,130,2013-03-28 03:53:00
10:53 PM,42.1,36.0,79,30.08,10.0,SE,8.1,-,N/A,,Mostly Cloudy,140,2013-03-28 04:53:00
11:53 PM,39.0,35.1,86,30.06,10.0,ESE,11.5,-,0.00,,Clear,110,2013-03-28 05:53:00